STARLINK-1738, 46336

Orbit data source: Space-Track

STARLINK-1738, 46336 is a payload satellite owned by SpaceX/Seattle (US) in LEO that was launched on Thu, 03 Sep 2020 UTC via an FALCON 9 launch vehicle from the Air Force Eastern Test Range (AFETR). Payload-class satellites include a variety of spacecraft equipped with specific instruments for various scientific and technological missions. These include communications satellites like Starlink; space stations such as the ISS; scientific satellites like the Hubble; Earth observation satellites from companies like Planet Labs, Umbra, and HawkEye 360; GPS; miniature CubeSats for education and research; and military/defense satellites.

Loading next visibility...
Identifier
46336, 2020-062M
Orbit
LEO
Country
Flag of USUS
Related business
Manufacturer
SpaceX/Seattle
Mission
Partially operational Commercial Communications
Bus & Motor
STARLINK, Unknown motor
Mass
260 kg wet, ~248 kg dry
Launch date (UTC)
2020-09-03 (5 years ago)
Launch vehicle
FALCON 9
Launch site
Air Force Eastern Test Range (AFETR)
Object type
Payload
Rocket body
Debris
Shape & HBR
Box + 1 Pan, 10.1 m
Radar Cross Section
13.562 m², Large (>1 m²)

Expand to show TLE details & history
Last TLE update: 1 day ago

TLE from 1 day ago
0 STARLINK-1738
1 46336U 20062M   25309.62011739  .00039696  00000-0  82645-3 0  9991
2 46336  53.0480 171.0549 0014266  83.1678 277.0950 15.45139421286206
Epoch: 2025-11-05T14:52Z
TLE epoch observation values (Epoch: 2025-11-05T14:52:58.142Z)
Latitude
-0.00006°
Longitude
-97.27758°
Altitude
430.676 km
Speed
7.655 km/s
True Right ascension
11h 24m 13s
True Declination
0° 00' 00"
Sunlit
Object was in daylight at epoch
Visualization orbit readout
Latitude
Unknown
Longitude
Unknown
Altitude
Unknown
Speed
Unknown
Apparent Right ascension
Unknown
Apparent Declination
Unknown
Sunlit
N/A
Visualization observer readout
Local Sidereal Time
15:39:59
Azimuth
Unknown
Elevation
Unknown
Doppler factor
Unknown
Orbital elements
Apogee altitude
440.959 km
Perigee altitude
421.53 km
Semi-major axis
6,809.382 km
Eccentricity
0.00143
Inclination
53.048°
RAAN
171.0549°
Arg. of periapsis
83.1678°
True anomaly
276.93274°
Mean anomaly
277.095°
Eccentric anomaly
277.01387°
Mean motion
3.86262 °/min
Orbital period
93.2 mins
BSTAR
0.00082645
Loading maneuver chart data...
Computing Atmospheric mass density...
Loading historical data...
Loading historical data...
Loading historical data...
Loading historical data...
Loading historical data...
Loading historical data...
Loading historical data...

Documentation

Showing up to 5 results
|